| time (UTC) | temp C | wind direction | speed KPH | gust KPH | rain 1hr cm | rain 24hr cm | rain mn cm | humidity % | barometer mb |
| 20260506104421 | 16 | 344 | 4.8 | 9.7 | 0.00 | 0.05 | 0.00 | 74 | 1004.8 |
| 20260506103821 | 15 | 310 | 4.8 | 12.9 | 0.00 | 0.05 | 0.00 | 75 | 1004.9 |
| 20260506103211 | 15 | 336 | 4.8 | 9.7 | 0.00 | 0.05 | 0.00 | 75 | 1004.8 |
| 20260506102613 | 15 | 341 | 8.0 | 12.9 | 0.00 | 0.05 | 0.00 | 74 | 1004.9 |
| 20260506102020 | 15 | 17 | 6.4 | 9.7 | 0.00 | 0.05 | 0.00 | 73 | 1005.0 |
| 20260506101420 | 16 | 360 | 6.4 | 8.0 | 0.00 | 0.05 | 0.00 | 70 | 1005.3 |
| 20260506100820 | 16 | 281 | 0.0 | 6.4 | 0.00 | 0.05 | 0.00 | 72 | 1005.5 |
| 20260506100220 | 16 | 17 | 0.0 | 6.4 | 0.00 | 0.05 | 0.00 | 72 | 1005.5 |
| 20260506095621 | 16 | 338 | 0.0 | 6.4 | 0.00 | 0.05 | 0.00 | 72 | 1005.5 |
| 20260506095020 | 16 | 273 | 1.6 | 4.8 | 0.00 | 0.05 | 0.00 | 71 | 1005.5 |
| 20260506094421 | 15 | 345 | 1.6 | 6.4 | 0.00 | 0.05 | 0.00 | 71 | 1005.6 |
| 20260506093820 | 15 | 300 | 1.6 | 3.2 | 0.00 | 0.05 | 0.00 | 73 | 1005.5 |
| 20260506093221 | 15 | 254 | 0.0 | 6.4 | 0.00 | 0.05 | 0.00 | 70 | 1005.5 |
| 20260506092606 | 15 | 229 | 1.6 | 8.0 | 0.00 | 0.05 | 0.00 | 71 | 1005.5 |
| 20260506092008 | 15 | 350 | 0.0 | 6.4 | 0.00 | 0.05 | 0.00 | 72 | 1005.6 |
| 20260506091420 | 15 | 274 | 0.0 | 3.2 | 0.00 | 0.05 | 0.00 | 73 | 1005.5 |
| 20260506090821 | 15 | 323 | 0.0 | 3.2 | 0.00 | 0.05 | 0.00 | 75 | 1005.5 |
| 20260506090208 | 15 | 325 | 6.4 | 8.0 | 0.00 | 0.05 | 0.00 | 73 | 1005.5 |
| 20260506085620 | 15 | 345 | 0.0 | 6.4 | 0.00 | 0.05 | 0.00 | 77 | 1005.5 |
| 20260506085021 | 15 | 272 | 1.6 | 6.4 | 0.00 | 0.05 | 0.00 | 76 | 1005.5 |
| 20260506085006 | 15 | 272 | 1.6 | 6.4 | 0.00 | 0.05 | 0.00 | 76 | 1005.5 |
| 20260506084419 | 14 | 346 | 0.0 | 6.4 | 0.00 | 0.05 | 0.00 | 80 | 1005.4 |
| 20260506083821 | 13 | 24 | 0.0 | 4.8 | 0.00 | 0.05 | 0.00 | 80 | 1005.5 |
| 20260506083220 | 13 | 5 | 6.4 | 8.0 | 0.00 | 0.05 | 0.00 | 80 | 1005.6 |
| 20260506082621 | 13 | 16 | 0.0 | 8.0 | 0.00 | 0.05 | 0.00 | 81 | 1005.6 |
| 20260506082021 | 13 | 355 | 3.2 | 11.3 | 0.00 | 0.05 | 0.00 | 81 | 1005.6 |
| 20260506082007 | 13 | 355 | 3.2 | 11.3 | 0.00 | 0.05 | 0.00 | 81 | 1005.6 |
| 20260506081420 | 13 | 345 | 3.2 | 8.0 | 0.00 | 0.05 | 0.00 | 82 | 1005.6 |
| 20260506080820 | 13 | 330 | 6.4 | 9.7 | 0.00 | 0.05 | 0.00 | 81 | 1005.6 |
| 20260506080220 | 13 | 340 | 4.8 | 8.0 | 0.00 | 0.05 | 0.00 | 82 | 1005.5 |
| 20260506073207 | 13 | 296 | 0.0 | 3.2 | 0.00 | 0.05 | 0.00 | 84 | 1005.8 |
| 20260506072620 | 13 | 221 | 0.0 | 1.6 | 0.00 | 0.05 | 0.00 | 85 | 1005.9 |
| 20260506072020 | 12 | 221 | 1.6 | 6.4 | 0.00 | 0.05 | 0.00 | 85 | 1006.0 |
| 20260506071419 | 12 | 202 | 1.6 | 3.2 | 0.00 | 0.05 | 0.00 | 87 | 1006.1 |
| 20260506070811 | 12 | 107 | 0.0 | 0.0 | 0.00 | 0.05 | 0.00 | 88 | 1006.0 |
| 20260506070220 | 12 | 100 | 0.0 | 6.4 | 0.00 | 0.05 | 0.00 | 89 | 1006.0 |
| 20260506062021 | 11 | 78 | 0.0 | 4.8 | 0.00 | 0.05 | 0.00 | 92 | 1005.8 |
| 20260506062006 | 11 | 78 | 0.0 | 4.8 | 0.00 | 0.05 | 0.00 | 92 | 1005.8 |
| 20260506061420 | 11 | 130 | 1.6 | 6.4 | 0.00 | 0.05 | 0.00 | 92 | 1006.0 |
| 20260506060821 | 11 | 133 | 3.2 | 6.4 | 0.00 | 0.05 | 0.00 | 93 | 1006.0 |
| 20260506060220 | 10 | 113 | 0.0 | 3.2 | 0.00 | 0.05 | 0.00 | 93 | 1006.0 |
| 20260506050821 | 7 | 140 | 0.0 | 0.0 | 0.00 | 0.05 | 0.00 | 93 | 1006.1 |
| 20260506050220 | 7 | 140 | 0.0 | 0.0 | 0.00 | 0.05 | 0.00 | 93 | 1006.2 |
| 20260506045020 | 7 | 135 | 0.0 | 0.0 | 0.00 | 0.05 | 0.00 | 93 | 1006.3 |
| 20260506044421 | 7 | 135 | 0.0 | 0.0 | 0.00 | 0.05 | 0.00 | 93 | 1006.3 |
| 20260506043821 | 7 | 135 | 0.0 | 3.2 | 0.00 | 0.05 | 0.00 | 93 | 1006.3 |
| 20260506043220 | 7 | 135 | 0.0 | 0.0 | 0.00 | 0.05 | 0.00 | 93 | 1006.3 |
| 20260506042620 | 7 | 135 | 0.0 | 1.6 | 0.00 | 0.05 | 0.00 | 92 | 1006.3 |
| 20260506042020 | 7 | 139 | 0.0 | 0.0 | 0.00 | 0.05 | 0.00 | 92 | 1006.4 |
| 20260506041421 | 7 | 126 | 0.0 | 0.0 | 0.00 | 0.05 | 0.00 | 92 | 1006.5 |
| 20260506040822 | 7 | 126 | 0.0 | 0.0 | 0.00 | 0.05 | 0.00 | 93 | 1006.6 |
| 20260506040208 | 7 | 126 | 0.0 | 0.0 | 0.00 | 0.05 | 0.00 | 93 | 1006.5 |
| 20260506035620 | 7 | 126 | 0.0 | 3.2 | 0.00 | 0.05 | 0.00 | 93 | 1006.6 |
| 20260506035020 | 7 | 126 | 1.6 | 6.4 | 0.00 | 0.05 | 0.00 | 92 | 1006.7 |
| 20260506034421 | 7 | 121 | 1.6 | 6.4 | 0.00 | 0.05 | 0.00 | 92 | 1006.8 |
| 20260506033807 | 7 | 133 | 0.0 | 0.0 | 0.00 | 0.05 | 0.00 | 92 | 1006.9 |
| 20260506033220 | 7 | 133 | 0.0 | 0.0 | 0.00 | 0.05 | 0.00 | 92 | 1006.9 |
| 20260506032621 | 7 | 133 | 0.0 | 0.0 | 0.00 | 0.05 | 0.00 | 92 | 1006.9 |
| 20260506032021 | 7 | 133 | 0.0 | 0.0 | 0.00 | 0.05 | 0.00 | 92 | 1007.0 |
| 20260506031420 | 7 | 133 | 0.0 | 0.0 | 0.00 | 0.05 | 0.00 | 92 | 1006.9 |
| 20260506030808 | 7 | 126 | 0.0 | 3.2 | 0.00 | 0.05 | 0.00 | 92 | 1006.9 |
| 20260506030221 | 7 | 140 | 0.0 | 4.8 | 0.00 | 0.05 | 0.00 | 92 | 1007.0 |
| 20260506025621 | 7 | 134 | 0.0 | 3.2 | 0.00 | 0.05 | 0.00 | 92 | 1007.0 |
| 20260506025021 | 7 | 121 | 0.0 | 3.2 | 0.00 | 0.05 | 0.00 | 92 | 1007.1 |
| 20260506024420 | 7 | 128 | 1.6 | 3.2 | 0.00 | 0.05 | 0.00 | 92 | 1007.1 |
| 20260506023821 | 7 | 132 | 0.0 | 3.2 | 0.00 | 0.05 | 0.00 | 92 | 1007.2 |
| 20260506023208 | 8 | 124 | 3.2 | 6.4 | 0.00 | 0.05 | 0.00 | 92 | 1007.1 |
| 20260506022622 | 8 | 123 | 1.6 | 6.4 | 0.00 | 0.05 | 0.00 | 92 | 1007.1 |
| 20260506022022 | 8 | 123 | 0.0 | 0.0 | 0.00 | 0.05 | 0.00 | 92 | 1007.2 |
| 20260506021422 | 8 | 157 | 0.0 | 0.0 | 0.00 | 0.05 | 0.00 | 92 | 1007.3 |
| 20260506020811 | 8 | 157 | 0.0 | 0.0 | 0.00 | 0.05 | 0.00 | 92 | 1007.3 |
| 20260506020209 | 8 | 157 | 0.0 | 0.0 | 0.00 | 0.05 | 0.00 | 92 | 1007.2 |
| 20260506015607 | 8 | 157 | 0.0 | 0.0 | 0.00 | 0.05 | 0.00 | 91 | 1007.3 |
| 20260506015020 | 8 | 157 | 0.0 | 0.0 | 0.00 | 0.05 | 0.00 | 92 | 1007.2 |
| 20260506014421 | 8 | 195 | 0.0 | 0.0 | 0.00 | 0.05 | 0.00 | 92 | 1007.3 |
| 20260506013806 | 9 | 221 | 0.0 | 0.0 | 0.00 | 0.05 | 0.00 | 92 | 1007.3 |
| 20260506013207 | 9 | 221 | 0.0 | 0.0 | 0.00 | 0.05 | 0.00 | 92 | 1007.4 |
| 20260506012620 | 9 | 221 | 0.0 | 0.0 | 0.00 | 0.05 | 0.00 | 92 | 1007.4 |
| 20260506012021 | 9 | 221 | 0.0 | 1.6 | 0.00 | 0.05 | 0.00 | 92 | 1007.5 |
| 20260506011414 | 9 | 201 | 1.6 | 3.2 | 0.00 | 0.05 | 0.00 | 92 | 1007.8 |
| 20260506010821 | 9 | 208 | 1.6 | 1.6 | 0.00 | 0.05 | 0.00 | 92 | 1007.8 |
| 20260506010221 | 9 | 207 | 1.6 | 3.2 | 0.00 | 0.05 | 0.00 | 92 | 1007.7 |
| 20260506005622 | 9 | 213 | 3.2 | 9.7 | 0.00 | 0.05 | 0.00 | 92 | 1007.6 |
| 20260506005022 | 9 | 191 | 1.6 | 6.4 | 0.00 | 0.05 | 0.00 | 92 | 1007.6 |
| 20260506004413 | 9 | 194 | 1.6 | 6.4 | 0.00 | 0.05 | 0.00 | 92 | 1007.5 |
| 20260506003810 | 9 | 192 | 1.6 | 3.2 | 0.00 | 0.05 | 0.00 | 92 | 1007.6 |
| 20260506003209 | 8 | 209 | 0.0 | 3.2 | 0.00 | 0.05 | 0.00 | 92 | 1007.6 |
| 20260506002606 | 8 | 192 | 0.0 | 1.6 | 0.00 | 0.05 | 0.00 | 91 | 1007.6 |
| 20260506002020 | 8 | 225 | 0.0 | 0.0 | 0.00 | 0.05 | 0.00 | 91 | 1007.7 |
| 20260506001420 | 8 | 225 | 0.0 | 0.0 | 0.00 | 0.05 | 0.00 | 91 | 1007.7 |
| 20260506000820 | 9 | 225 | 0.0 | 0.0 | 0.00 | 0.05 | 0.00 | 91 | 1007.8 |
| 20260506000220 | 9 | 225 | 0.0 | 0.0 | 0.00 | 0.05 | 0.00 | 91 | 1007.8 |
| 20260505235620 | 9 | 225 | 0.0 | 3.2 | 0.00 | 0.05 | 0.00 | 91 | 1007.7 |
| 20260505235020 | 9 | 225 | 3.2 | 8.0 | 0.00 | 0.05 | 0.00 | 91 | 1007.8 |
| 20260505234420 | 9 | 235 | 0.0 | 9.7 | 0.00 | 0.05 | 0.00 | 91 | 1007.9 |
| 20260505233809 | 8 | 213 | 0.0 | 8.0 | 0.00 | 0.05 | 0.00 | 91 | 1007.9 |
| 20260505233208 | 8 | 215 | 1.6 | 4.8 | 0.00 | 0.05 | 0.00 | 91 | 1008.0 |
| 20260505232607 | 9 | 209 | 0.0 | 1.6 | 0.00 | 0.05 | 0.00 | 90 | 1008.1 |
| 20260505232022 | 9 | 219 | 0.0 | 0.0 | 0.00 | 0.05 | 0.00 | 90 | 1008.1 |
| 20260505231422 | 9 | 219 | 0.0 | 0.0 | 0.00 | 0.05 | 0.00 | 90 | 1008.1 |
| 20260505230807 | 9 | 219 | 0.0 | 0.0 | 0.00 | 0.05 | 0.00 | 89 | 1008.2 |
| 20260505230209 | 10 | 219 | 0.0 | 0.0 | 0.00 | 0.05 | 0.00 | 90 | 1008.2 |
| 20260505225622 | 10 | 201 | 0.0 | 0.0 | 0.00 | 0.05 | 0.00 | 89 | 1008.2 |
| 20260505225021 | 10 | 201 | 0.0 | 0.0 | 0.00 | 0.05 | 0.00 | 89 | 1008.1 |
| 20260505224422 | 10 | 206 | 1.6 | 3.2 | 0.00 | 0.05 | 0.00 | 89 | 1008.1 |
| 20260505223808 | 10 | 227 | 0.0 | 0.0 | 0.00 | 0.05 | 0.00 | 89 | 1008.1 |
| 20260505223206 | 10 | 230 | 0.0 | 6.4 | 0.00 | 0.05 | 0.00 | 89 | 1008.1 |
| 20260505222620 | 10 | 178 | 0.0 | 6.4 | 0.00 | 0.05 | 0.00 | 89 | 1008.2 |
| 20260505222021 | 10 | 163 | 3.2 | 8.0 | 0.00 | 0.05 | 0.00 | 88 | 1008.1 |
| 20260505221412 | 10 | 220 | 1.6 | 6.4 | 0.00 | 0.05 | 0.00 | 88 | 1008.0 |
| 20260505220821 | 11 | 223 | 4.8 | 8.0 | 0.00 | 0.05 | 0.00 | 88 | 1008.0 |
| 20260505220223 | 11 | 238 | 3.2 | 9.7 | 0.00 | 0.05 | 0.00 | 88 | 1008.0 |
| 20260505215621 | 11 | 219 | 3.2 | 6.4 | 0.00 | 0.05 | 0.05 | 88 | 1008.1 |
| 20260505215020 | 11 | 226 | 0.0 | 3.2 | 0.00 | 0.05 | 0.05 | 88 | 1008.0 |
| 20260505214421 | 11 | 285 | 0.0 | 6.4 | 0.00 | 0.05 | 0.05 | 88 | 1008.1 |
| 20260505213813 | 11 | 239 | 4.8 | 11.3 | 0.00 | 0.05 | 0.05 | 88 | 1008.0 |
| 20260505213221 | 11 | 258 | 6.4 | 11.3 | 0.00 | 0.05 | 0.05 | 87 | 1008.0 |
| 20260505212621 | 11 | 237 | 6.4 | 11.3 | 0.00 | 0.05 | 0.05 | 87 | 1008.1 |
| 20260505212021 | 12 | 246 | 3.2 | 9.7 | 0.00 | 0.05 | 0.05 | 87 | 1008.0 |
| 20260505211422 | 12 | 250 | 3.2 | 9.7 | 0.00 | 0.05 | 0.05 | 86 | 1008.0 |
| 20260505210821 | 12 | 272 | 3.2 | 8.0 | 0.00 | 0.05 | 0.05 | 86 | 1007.9 |
| 20260505210222 | 12 | 240 | 6.4 | 11.3 | 0.00 | 0.05 | 0.05 | 86 | 1007.8 |
| 20260505205621 | 12 | 234 | 4.8 | 11.3 | 0.00 | 0.05 | 0.05 | 86 | 1007.9 |
| 20260505205021 | 12 | 229 | 8.0 | 11.3 | 0.00 | 0.05 | 0.05 | 85 | 1007.8 |
| 20260505204421 | 12 | 273 | 4.8 | 11.3 | 0.00 | 0.05 | 0.05 | 85 | 1007.8 |
| 20260505203821 | 12 | 238 | 4.8 | 17.7 | 0.00 | 0.05 | 0.05 | 85 | 1008.0 |
| 20260505203221 | 12 | 236 | 4.8 | 11.3 | 0.00 | 0.05 | 0.05 | 85 | 1008.0 |
| 20260505202621 | 12 | 221 | 6.4 | 16.1 | 0.00 | 0.05 | 0.05 | 85 | 1008.0 |
| 20260505202009 | 12 | 215 | 8.0 | 16.1 | 0.00 | 0.05 | 0.05 | 85 | 1008.0 |
| 20260505201421 | 13 | 206 | 6.4 | 12.9 | 0.00 | 0.05 | 0.05 | 85 | 1008.0 |
| 20260505200812 | 13 | 211 | 6.4 | 16.1 | 0.00 | 0.05 | 0.05 | 85 | 1007.9 |
| 20260505200209 | 13 | 216 | 4.8 | 11.3 | 0.00 | 0.05 | 0.05 | 84 | 1008.0 |
| 20260505195621 | 13 | 213 | 4.8 | 9.7 | 0.00 | 0.05 | 0.05 | 84 | 1008.0 |
| 20260505195021 | 13 | 190 | 3.2 | 9.7 | 0.00 | 0.05 | 0.05 | 82 | 1008.0 |
| 20260505194412 | 14 | 237 | 6.4 | 16.1 | 0.00 | 0.05 | 0.05 | 79 | 1008.0 |
| 20260505193821 | 14 | 232 | 16.1 | 22.5 | 0.00 | 0.05 | 0.05 | 79 | 1007.9 |
| 20260505193221 | 15 | 296 | 8.0 | 19.3 | 0.00 | 0.05 | 0.05 | 79 | 1007.8 |
| 20260505192607 | 15 | 248 | 8.0 | 17.7 | 0.00 | 0.05 | 0.05 | 78 | 1007.7 |
| 20260505192022 | 15 | 245 | 6.4 | 14.5 | 0.00 | 0.05 | 0.05 | 77 | 1007.5 |
| 20260505191421 | 15 | 229 | 8.0 | 11.3 | 0.00 | 0.05 | 0.05 | 76 | 1007.2 |
| 20260505190807 | 15 | 239 | 6.4 | 11.3 | 0.00 | 0.05 | 0.05 | 76 | 1007.0 |
| 20260505190209 | 15 | 240 | 4.8 | 11.3 | 0.00 | 0.05 | 0.05 | 75 | 1006.9 |
| 20260505185620 | 15 | 270 | 3.2 | 9.7 | 0.00 | 0.13 | 0.05 | 74 | 1006.8 |
| 20260505185020 | 15 | 319 | 4.8 | 12.9 | 0.00 | 0.13 | 0.05 | 74 | 1006.7 |
| 20260505184420 | 15 | 244 | 3.2 | 16.1 | 0.00 | 0.13 | 0.05 | 73 | 1006.8 |
| 20260505183821 | 15 | 228 | 8.0 | 11.3 | 0.00 | 0.13 | 0.05 | 73 | 1006.6 |
| 20260505183208 | 15 | 249 | 3.2 | 6.4 | 0.00 | 0.13 | 0.05 | 74 | 1006.6 |
| 20260505182622 | 15 | 269 | 0.0 | 6.4 | 0.00 | 0.13 | 0.05 | 74 | 1006.6 |
| 20260505182021 | 15 | 254 | 0.0 | 8.0 | 0.00 | 0.13 | 0.05 | 74 | 1006.6 |
| 20260505181409 | 15 | 220 | 0.0 | 0.0 | 0.00 | 0.13 | 0.05 | 73 | 1006.4 |
| 20260505180821 | 15 | 220 | 0.0 | 0.0 | 0.00 | 0.13 | 0.05 | 73 | 1006.3 |
| 20260505180221 | 16 | 220 | 0.0 | 1.6 | 0.00 | 0.13 | 0.05 | 72 | 1006.2 |
| 20260505175621 | 16 | 219 | 0.0 | 3.2 | 0.00 | 0.20 | 0.05 | 71 | 1006.2 |
| 20260505175022 | 16 | 238 | 0.0 | 1.6 | 0.00 | 0.20 | 0.05 | 71 | 1006.2 |
| 20260505174422 | 16 | 264 | 1.6 | 4.8 | 0.00 | 0.20 | 0.05 | 70 | 1006.2 |
| 20260505173808 | 16 | 313 | 1.6 | 6.4 | 0.00 | 0.20 | 0.05 | 69 | 1006.2 |
| 20260505173221 | 16 | 269 | 4.8 | 11.3 | 0.00 | 0.20 | 0.05 | 68 | 1006.1 |
| 20260505172621 | 16 | 291 | 4.8 | 9.7 | 0.00 | 0.20 | 0.05 | 69 | 1006.2 |
| 20260505172021 | 16 | 290 | 4.8 | 9.7 | 0.00 | 0.20 | 0.05 | 69 | 1006.1 |
| 20260505171420 | 16 | 271 | 4.8 | 9.7 | 0.00 | 0.20 | 0.05 | 68 | 1005.9 |
| 20260505170809 | 16 | 278 | 4.8 | 11.3 | 0.00 | 0.20 | 0.05 | 67 | 1005.9 |
| 20260505170220 | 17 | 252 | 1.6 | 9.7 | 0.00 | 0.20 | 0.05 | 67 | 1005.9 |
| 20260505165621 | 17 | 280 | 0.0 | 9.7 | 0.00 | 0.20 | 0.05 | 69 | 1005.8 |
| 20260505165022 | 17 | 290 | 0.0 | 0.0 | 0.00 | 0.20 | 0.05 | 69 | 1005.9 |
| 20260505164421 | 17 | 290 | 1.6 | 3.2 | 0.00 | 0.20 | 0.05 | 65 | 1005.7 |
| 20260505163822 | 17 | 290 | 0.0 | 3.2 | 0.00 | 0.20 | 0.05 | 65 | 1005.8 |
| 20260505163209 | 17 | 198 | 0.0 | 1.6 | 0.00 | 0.20 | 0.05 | 66 | 1005.7 |
| 20260505162607 | 17 | 194 | 0.0 | 6.4 | 0.00 | 0.20 | 0.05 | 65 | 1005.8 |
| 20260505162022 | 17 | 169 | 4.8 | 9.7 | 0.03 | 0.20 | 0.05 | 66 | 1005.9 |
| 20260505161422 | 16 | 269 | 1.6 | 3.2 | 0.03 | 0.20 | 0.05 | 70 | 1006.1 |
| 20260505160821 | 16 | 278 | 0.0 | 1.6 | 0.03 | 0.20 | 0.05 | 70 | 1006.0 |
| 20260505160207 | 16 | 278 | 0.0 | 3.2 | 0.03 | 0.20 | 0.05 | 70 | 1006.0 |
| 20260505153221 | 17 | 346 | 1.6 | 8.0 | 0.03 | 0.20 | 0.05 | 71 | 1006.1 |
| 20260505152609 | 16 | 285 | 1.6 | 6.4 | 0.03 | 0.20 | 0.05 | 73 | 1006.2 |
| 20260505152020 | 16 | 355 | 0.0 | 9.7 | 0.00 | 0.18 | 0.05 | 72 | 1006.1 |
| 20260505151413 | 16 | 328 | 6.4 | 14.5 | 0.00 | 0.18 | 0.05 | 70 | 1006.0 |
| 20260505150822 | 16 | 333 | 8.0 | 12.9 | 0.00 | 0.18 | 0.05 | 71 | 1006.2 |
| 20260505150208 | 16 | 296 | 3.2 | 8.0 | 0.00 | 0.18 | 0.05 | 73 | 1006.2 |
| 20260505140208 | 16 | 331 | 1.6 | 6.4 | 0.00 | 0.18 | 0.05 | 73 | 1006.3 |
| 20260505130221 | 16 | 291 | 0.0 | 3.2 | 0.03 | 0.18 | 0.05 | 73 | 1006.9 |
| 20260505125009 | 16 | 233 | 4.8 | 6.4 | 0.03 | 0.18 | 0.05 | 73 | 1006.9 |
| 20260505124422 | 16 | 235 | 3.2 | 8.0 | 0.03 | 0.18 | 0.05 | 75 | 1006.9 |
| 20260505123821 | 16 | 202 | 1.6 | 9.7 | 0.03 | 0.18 | 0.05 | 77 | 1006.9 |
| 20260505123222 | 16 | 199 | 3.2 | 9.7 | 0.03 | 0.18 | 0.05 | 79 | 1007.0 |
| 20260505122621 | 16 | 222 | 1.6 | 6.4 | 0.03 | 0.18 | 0.05 | 80 | 1007.1 |
| 20260505122021 | 16 | 235 | 3.2 | 9.7 | 0.03 | 0.18 | 0.05 | 78 | 1007.0 |
| 20260505121421 | 17 | 247 | 3.2 | 14.5 | 0.00 | 0.15 | 0.03 | 73 | 1007.1 |
| 20260505120821 | 17 | 222 | 6.4 | 16.1 | 0.00 | 0.15 | 0.03 | 70 | 1007.1 |
| 20260505120220 | 17 | 217 | 3.2 | 12.9 | 0.00 | 0.15 | 0.03 | 68 | 1007.1 |
| 20260505115623 | 17 | 234 | 3.2 | 9.7 | 0.00 | 0.15 | 0.03 | 68 | 1006.9 |
| 20260505115022 | 17 | 239 | 3.2 | 8.0 | 0.00 | 0.15 | 0.03 | 66 | 1006.9 |
| 20260505114421 | 18 | 233 | 3.2 | 9.7 | 0.00 | 0.15 | 0.03 | 69 | 1006.8 |
| 20260505113822 | 18 | 284 | 4.8 | 11.3 | 0.00 | 0.15 | 0.03 | 68 | 1006.8 |
| 20260505113221 | 18 | 185 | 6.4 | 14.5 | 0.00 | 0.15 | 0.03 | 69 | 1006.8 |
| 20260505112609 | 17 | 261 | 0.0 | 4.8 | 0.00 | 0.15 | 0.03 | 70 | 1006.7 |
| 20260505112021 | 17 | 270 | 3.2 | 6.4 | 0.00 | 0.15 | 0.03 | 68 | 1006.6 |
| 20260505111411 | 17 | 298 | 0.0 | 4.8 | 0.00 | 0.15 | 0.03 | 67 | 1006.5 |
| 20260505110808 | 17 | 255 | 3.2 | 8.0 | 0.00 | 0.15 | 0.03 | 67 | 1006.3 |
| 20260505110208 | 17 | 274 | 1.6 | 8.0 | 0.00 | 0.15 | 0.03 | 66 | 1006.4 |